Location: Newark
(25.6108°S, 54.5803°W)
Time: 17:07:28
(UTC+00:00)

Courier 1B Rocket - Pass Details

Date: 31 October 2020
Orbit: 920 x 1202 km, 28.2° (Epoch: 22 November)

Event Time Altitude Azimuth Distance (km) Brightness Sun altitude
Rises 10:14:45 0° 271° (W) 3,962 7.6 17.8°
Reaches altitude 10° 10:17:38 10° 269° (W) 2,964 7.0 18.5°
Maximum altitude 10:24:53 73° 184° (S) 1,094 5.7 20.1°
Drops below altitude 10° 10:31:36 10° 100° (E) 2,756 9.6 21.6°
Sets 10:34:12 0° 97° (E) 3,668 9.5 22.2°
